Flag for U.S.A. Weather past 2 weeks in Binghamton, New York, U.S.A.

Now
11 °F

Sunny.


Feels Like: 11 °F
Forecast: 3 / 29 °F
Wind: No wind

Location: Binghamton Regional Airport

Current Time: Mar 3, 2015 at 8:15:44 AM

Latest Report: Mar 3, 2015 at 7:53 AM


Visibility: 10 mi

Pressure: 30.37 "Hg

Humidity: 84%

Dew point: 7 °F

Location of BinghamtonLocation

Historic Weather in Binghamton — Graph

°F

Binghamton temperature yesterday

Maximum temperature yesterday: 25 °F (at 12:53 PM)
Minimum temperature yesterday: 15 °F (at 11:53 PM)
Average temperature yesterday: 21 °F

Past Weeks' High & Low Weather Summary

 TemperatureHumidityPressure
High31 °F (Feb 22, 3:53 PM)96% (Mar 1, 6:01 PM)30.80 "Hg (Mar 1, 6:01 PM)
Low-9 °F (Feb 20, 1:53 AM)29% (Feb 24, 1:53 PM)29.64 "Hg (Feb 18, 10:59 PM)
Average11 °F67%30.15 "Hg
* Reported Feb 16 6:53 AM — Mar 3 6:53 AM, Binghamton, Weather by CustomWeather, © 2015

Note: Actual official high and low records may vary slightly from our data, if they occured in-between our weather recording intervals... More about our weather records

Advertising

Binghamton weather history for previous 24 hours

 ConditionsComfort  
Time TempWeatherWind HumidityBarometerVisibility
6:53 AM
Tue, Mar 3
10 °FSunny.No wind88%30.37 "Hg10 mi
5:53 AM10 °FClear.5 mph84%30.38 "Hg10 mi
4:53 AM10 °FClear.6 mph84%30.38 "Hg10 mi
3:53 AM13 °FClear.3 mph81%30.35 "Hg10 mi
2:53 AM12 °FClear.3 mph80%30.36 "Hg10 mi
1:53 AM14 °FPassing clouds.3 mph73%30.37 "Hg10 mi
12:53 AM15 °FOvercast.5 mph70%30.37 "Hg10 mi
11:53 PM
Mon, Mar 2
15 °FOvercast.6 mph70%30.37 "Hg10 mi
10:53 PM16 °FPassing clouds.9 mph71%30.37 "Hg10 mi
9:53 PM17 °FPassing clouds.10 mph70%30.37 "Hg10 mi
8:53 PM19 °FPassing clouds.10 mph62%30.35 "Hg10 mi
7:53 PM20 °FPassing clouds.10 mph60%30.34 "Hg10 mi
6:53 PM20 °FPartly cloudy.15 mph62%30.32 "Hg10 mi
5:53 PM21 °FSunny.13 mph60%30.29 "Hg10 mi
4:53 PM24 °FPassing clouds.16 mph52%30.26 "Hg10 mi
3:53 PM24 °FPartly sunny.12 mph55%30.24 "Hg10 mi
2:53 PM24 °FOvercast.15 mph55%30.22 "Hg10 mi
1:53 PM24 °FOvercast.23 mph57%30.19 "Hg9 mi
12:53 PM25 °FMostly cloudy.21 mph63%30.19 "Hg8 mi
11:53 AM24 °FMostly cloudy.20 mph60%30.19 "Hg5 mi
10:53 AM23 °FMostly cloudy.17 mph65%30.18 "Hg9 mi
9:53 AM21 °FOvercast.13 mph71%30.17 "Hg2 mi
8:53 AM21 °FMostly cloudy.17 mph74%30.16 "Hg2 mi
8:02 AM19 °FLight snow. Ice fog.10 mph85%30.07 "Hg2 mi
Weather by CustomWeather, © 2015

See weather overviewHow to use our weather pages